Time,TemperatureF,DewpointF,PressureIn,WindDirection,WindDirectionDegrees,WindSpeedMPH,WindSpeedGustMPH,Humidity,HourlyPrecipIn,Conditions,Clouds,dailyrainin,SoftwareType,DateUTC
2013-01-03 00:01:00,23.4,14.1,30.24,West,269,0.0,0.0,67,0.00,,---,0.00,VWS V14.01,2013-01-03 05:01:00,
2013-01-03 00:03:00,23.4,14.1,30.24,West,269,0.0,0.0,67,0.00,,---,0.00,VWS V14.01,2013-01-03 05:03:00,
2013-01-03 00:04:00,23.4,14.1,30.24,West,269,0.0,0.0,67,0.00,,---,0.00,VWS V14.01,2013-01-03 05:04:00,
2013-01-03 00:09:00,23.2,14.6,30.24,West,274,0.0,1.0,69,0.00,,---,0.00,VWS V14.01,2013-01-03 05:09:00,
2013-01-03 00:14:00,23.1,14.1,30.23,West,269,0.0,0.0,68,0.00,,---,0.00,VWS V14.01,2013-01-03 05:14:00,
2013-01-03 00:19:00,23.1,14.5,30.23,West,271,0.0,1.0,69,0.00,,---,0.00,VWS V14.01,2013-01-03 05:19:00,
2013-01-03 00:24:00,23.2,14.6,30.23,WNW,298,0.0,0.0,69,0.00,,---,0.00,VWS V14.01,2013-01-03 05:24:00,
2013-01-03 00:29:00,23.1,14.5,30.23,West,278,0.0,1.0,69,0.00,,---,0.00,VWS V14.01,2013-01-03 05:29:00,
2013-01-03 00:34:00,23.0,14.4,30.23,WSW,248,0.0,1.0,69,0.00,,---,0.00,VWS V14.01,2013-01-03 05:34:00,
2013-01-03 00:40:00,23.0,14.0,30.22,West,266,0.0,0.0,68,0.00,,---,0.00,VWS V14.01,2013-01-03 05:40:00,
2013-01-03 00:45:00,23.1,13.8,30.23,West,260,0.0,1.0,67,0.00,,---,0.00,VWS V14.01,2013-01-03 05:45:00,
2013-01-03 00:50:00,23.2,13.9,30.22,West,263,0.0,1.0,67,0.00,,---,0.00,VWS V14.01,2013-01-03 05:50:00,
2013-01-03 00:55:00,23.1,13.8,30.23,WNW,285,0.0,0.0,67,0.00,,---,0.00,VWS V14.01,2013-01-03 05:55:00,
2013-01-03 01:00:00,22.9,13.9,30.23,West,273,0.0,0.0,68,0.00,,---,0.00,VWS V14.01,2013-01-03 06:00:00,
2013-01-03 01:05:00,22.9,13.9,30.22,West,267,0.0,0.0,68,0.00,,---,0.00,VWS V14.01,2013-01-03 06:05:00,
2013-01-03 01:10:00,22.8,13.5,30.23,West,267,0.0,0.0,67,0.00,,---,0.00,VWS V14.01,2013-01-03 06:10:00,
2013-01-03 01:15:00,22.8,13.5,30.22,WSW,256,0.0,0.0,67,0.00,,---,0.00,VWS V14.01,2013-01-03 06:15:00,
2013-01-03 01:20:00,22.8,13.5,30.22,West,260,1.0,1.0,67,0.00,,---,0.00,VWS V14.01,2013-01-03 06:20:00,
2013-01-03 01:25:00,22.8,13.5,30.22,WSW,255,0.0,0.0,67,0.00,,---,0.00,VWS V14.01,2013-01-03 06:25:00,
2013-01-03 01:30:00,22.8,13.5,30.22,West,259,1.0,1.0,67,0.00,,---,0.00,VWS V14.01,2013-01-03 06:30:00,
2013-01-03 01:35:00,22.8,13.8,30.22,West,274,0.0,0.0,68,0.00,,---,0.00,VWS V14.01,2013-01-03 06:35:00,
2013-01-03 01:41:00,22.7,14.1,30.22,West,276,0.0,0.0,69,0.00,,---,0.00,VWS V14.01,2013-01-03 06:41:00,
2013-01-03 01:46:00,22.7,14.4,30.22,WNW,290,0.0,0.0,70,0.00,,---,0.00,VWS V14.01,2013-01-03 06:46:00,
2013-01-03 01:51:00,22.7,14.4,30.22,WNW,286,0.0,1.0,70,0.00,,---,0.00,VWS V14.01,2013-01-03 06:51:00,
2013-01-03 01:56:00,23.0,14.7,30.22,WSW,257,0.0,1.0,70,0.00,,---,0.00,VWS V14.01,2013-01-03 06:56:00,
2013-01-03 02:01:00,23.2,14.9,30.22,West,263,0.0,0.0,70,0.00,,---,0.00,VWS V14.01,2013-01-03 07:01:00,
2013-01-03 02:06:00,23.3,15.0,30.22,West,263,0.0,0.0,70,0.00,,---,0.00,VWS V14.01,2013-01-03 07:06:00,
2013-01-03 02:11:00,23.5,14.8,30.22,West,263,0.0,0.0,69,0.00,,---,0.00,VWS V14.01,2013-01-03 07:11:00,
2013-01-03 02:17:00,23.5,15.2,30.23,West,263,0.0,0.0,70,0.00,,---,0.00,VWS V14.01,2013-01-03 07:17:00,
2013-01-03 02:22:00,23.5,14.8,30.23,West,277,0.0,0.0,69,0.00,,---,0.00,VWS V14.01,2013-01-03 07:22:00,
2013-01-03 02:27:00,23.4,14.8,30.22,West,274,0.0,0.0,69,0.00,,---,0.00,VWS V14.01,2013-01-03 07:27:00,
2013-01-03 02:32:00,23.3,14.6,30.22,West,270,0.0,0.0,69,0.00,,---,0.00,VWS V14.01,2013-01-03 07:32:00,
2013-01-03 02:37:00,23.3,14.6,30.22,West,270,0.0,0.0,69,0.00,,---,0.00,VWS V14.01,2013-01-03 07:37:00,
2013-01-03 02:42:00,23.3,15.0,30.23,West,269,0.0,1.0,70,0.00,,---,0.00,VWS V14.01,2013-01-03 07:42:00,
2013-01-03 02:47:00,23.3,14.6,30.23,WSW,252,0.0,0.0,69,0.00,,---,0.00,VWS V14.01,2013-01-03 07:47:00,
2013-01-03 02:52:00,23.3,15.0,30.22,West,274,0.0,0.0,70,0.00,,---,0.00,VWS V14.01,2013-01-03 07:52:00,
2013-01-03 02:57:00,23.3,14.6,30.23,West,263,0.0,0.0,69,0.00,,---,0.00,VWS V14.01,2013-01-03 07:57:00,
2013-01-03 03:02:00,23.3,14.6,30.23,WSW,256,0.0,0.0,69,0.00,,---,0.00,VWS V14.01,2013-01-03 08:02:00,
2013-01-03 03:08:00,23.2,14.6,30.23,West,264,0.0,0.0,69,0.00,,---,0.00,VWS V14.01,2013-01-03 08:08:00,
2013-01-03 03:13:00,23.2,14.6,30.23,WSW,255,0.0,0.0,69,0.00,,---,0.00,VWS V14.01,2013-01-03 08:13:00,
2013-01-03 03:18:00,23.1,14.5,30.22,West,269,0.0,0.0,69,0.00,,---,0.00,VWS V14.01,2013-01-03 08:18:00,
2013-01-03 03:23:00,23.1,14.1,30.23,West,269,0.0,0.0,68,0.00,,---,0.00,VWS V14.01,2013-01-03 08:23:00,
2013-01-03 03:29:00,23.0,14.4,30.23,WSW,255,0.0,0.0,69,0.00,,---,0.00,VWS V14.01,2013-01-03 08:29:00,
2013-01-03 03:34:00,23.1,14.5,30.23,WSW,256,0.0,0.0,69,0.00,,---,0.00,VWS V14.01,2013-01-03 08:34:00,
2013-01-03 03:39:00,23.1,14.1,30.22,West,266,0.0,0.0,68,0.00,,---,0.00,VWS V14.01,2013-01-03 08:39:00,
2013-01-03 03:44:00,23.0,14.0,30.22,West,267,0.0,1.0,68,0.00,,---,0.00,VWS V14.01,2013-01-03 08:44:00,
2013-01-03 03:49:00,23.0,14.4,30.22,West,267,0.0,0.0,69,0.00,,---,0.00,VWS V14.01,2013-01-03 08:49:00,
2013-01-03 03:54:00,22.9,13.9,30.22,West,267,0.0,0.0,68,0.00,,---,0.00,VWS V14.01,2013-01-03 08:54:00,
2013-01-03 03:59:00,22.9,13.9,30.22,West,266,0.0,0.0,68,0.00,,---,0.00,VWS V14.01,2013-01-03 08:59:00,
2013-01-03 04:04:00,22.8,14.2,30.22,West,265,0.0,0.0,69,0.00,,---,0.00,VWS V14.01,2013-01-03 09:04:00,
2013-01-03 04:09:00,22.6,14.0,30.23,West,259,0.0,0.0,69,0.00,,---,0.00,VWS V14.01,2013-01-03 09:09:00,
2013-01-03 04:14:00,22.6,14.0,30.22,West,260,0.0,0.0,69,0.00,,---,0.00,VWS V14.01,2013-01-03 09:14:00,
2013-01-03 04:20:00,22.7,14.1,30.22,West,259,0.0,0.0,69,0.00,,---,0.00,VWS V14.01,2013-01-03 09:20:00,
2013-01-03 04:25:00,22.7,14.1,30.22,West,259,0.0,0.0,69,0.00,,---,0.00,VWS V14.01,2013-01-03 09:25:00,
2013-01-03 04:30:00,22.6,14.0,30.22,West,259,0.0,0.0,69,0.00,,---,0.00,VWS V14.01,2013-01-03 09:30:00,
2013-01-03 04:35:00,22.5,13.9,30.22,West,259,0.0,0.0,69,0.00,,---,0.00,VWS V14.01,2013-01-03 09:35:00,
2013-01-03 04:40:00,22.7,14.1,30.22,West,259,0.0,1.0,69,0.00,,---,0.00,VWS V14.01,2013-01-03 09:40:00,
2013-01-03 04:45:00,22.7,14.1,30.22,West,259,0.0,0.0,69,0.00,,---,0.00,VWS V14.01,2013-01-03 09:45:00,
2013-01-03 04:50:00,22.8,14.2,30.22,West,259,0.0,1.0,69,0.00,,---,0.00,VWS V14.01,2013-01-03 09:50:00,
2013-01-03 04:56:00,22.7,14.1,30.22,West,270,0.0,0.0,69,0.00,,---,0.00,VWS V14.01,2013-01-03 09:56:00,
2013-01-03 05:01:00,22.7,14.4,30.22,West,270,1.0,1.0,70,0.00,,---,0.00,VWS V14.01,2013-01-03 10:01:00,
2013-01-03 05:06:00,22.7,14.1,30.21,WSW,252,0.0,0.0,69,0.00,,---,0.00,VWS V14.01,2013-01-03 10:06:00,
2013-01-03 05:11:00,22.7,14.1,30.21,WSW,253,0.0,1.0,69,0.00,,---,0.00,VWS V14.01,2013-01-03 10:11:00,
2013-01-03 05:16:00,22.6,14.3,30.22,WSW,252,0.0,1.0,70,0.00,,---,0.00,VWS V14.01,2013-01-03 10:16:00,
2013-01-03 05:21:00,22.4,13.8,30.22,WSW,252,0.0,0.0,69,0.00,,---,0.00,VWS V14.01,2013-01-03 10:21:00,
2013-01-03 05:26:00,22.3,13.7,30.22,WSW,252,0.0,0.0,69,0.00,,---,0.00,VWS V14.01,2013-01-03 10:26:00,
2013-01-03 05:31:00,22.2,13.6,30.22,West,266,0.0,0.0,69,0.00,,---,0.00,VWS V14.01,2013-01-03 10:31:00,
2013-01-03 05:37:00,22.3,13.7,30.23,West,263,0.0,0.0,69,0.00,,---,0.00,VWS V14.01,2013-01-03 10:37:00,
2013-01-03 05:42:00,22.3,13.7,30.23,West,262,0.0,0.0,69,0.00,,---,0.00,VWS V14.01,2013-01-03 10:42:00,
2013-01-03 05:47:00,22.0,13.7,30.23,WSW,257,0.0,1.0,70,0.00,,---,0.00,VWS V14.01,2013-01-03 10:47:00,
2013-01-03 05:52:00,21.9,13.3,30.22,WSW,257,0.0,0.0,69,0.00,,---,0.00,VWS V14.01,2013-01-03 10:52:00,
2013-01-03 05:57:00,21.8,13.2,30.22,WSW,257,0.0,0.0,69,0.00,,---,0.00,VWS V14.01,2013-01-03 10:57:00,
2013-01-03 06:02:00,21.7,13.1,30.23,WSW,257,0.0,0.0,69,0.00,,---,0.00,VWS V14.01,2013-01-03 11:02:00,
2013-01-03 06:07:00,21.6,13.3,30.23,WSW,257,0.0,1.0,70,0.00,,---,0.00,VWS V14.01,2013-01-03 11:07:00,
2013-01-03 06:12:00,21.3,13.1,30.23,WSW,257,0.0,1.0,70,0.00,,---,0.00,VWS V14.01,2013-01-03 11:12:00,
2013-01-03 06:18:00,21.3,13.4,30.23,West,262,0.0,0.0,71,0.00,,---,0.00,VWS V14.01,2013-01-03 11:18:00,
2013-01-03 06:23:00,21.2,13.0,30.23,West,260,0.0,0.0,70,0.00,,---,0.00,VWS V14.01,2013-01-03 11:23:00,
2013-01-03 06:28:00,21.1,13.2,30.23,West,259,0.0,0.0,71,0.00,,---,0.00,VWS V14.01,2013-01-03 11:28:00,
2013-01-03 06:33:00,20.9,13.0,30.23,West,260,0.0,0.0,71,0.00,,---,0.00,VWS V14.01,2013-01-03 11:33:00,
2013-01-03 06:38:00,20.8,12.9,30.23,West,260,0.0,1.0,71,0.00,,---,0.00,VWS V14.01,2013-01-03 11:38:00,
2013-01-03 06:43:00,20.7,12.8,30.23,West,260,0.0,0.0,71,0.00,,---,0.00,VWS V14.01,2013-01-03 11:43:00,
2013-01-03 06:49:00,20.7,13.1,30.23,West,259,0.0,0.0,72,0.00,,---,0.00,VWS V14.01,2013-01-03 11:49:00,
2013-01-03 06:54:00,20.8,12.9,30.23,West,260,0.0,0.0,71,0.00,,---,0.00,VWS V14.01,2013-01-03 11:54:00,
2013-01-03 06:59:00,21.1,13.2,30.23,West,259,0.0,0.0,71,0.00,,---,0.00,VWS V14.01,2013-01-03 11:59:00,
2013-01-03 07:04:00,21.1,13.2,30.23,West,260,0.0,0.0,71,0.00,,---,0.00,VWS V14.01,2013-01-03 12:04:00,
2013-01-03 07:09:00,21.2,13.0,30.23,West,259,0.0,0.0,70,0.00,,---,0.00,VWS V14.01,2013-01-03 12:09:00,
2013-01-03 07:14:00,21.2,13.0,30.23,West,259,0.0,0.0,70,0.00,,---,0.00,VWS V14.01,2013-01-03 12:14:00,
2013-01-03 07:19:00,21.2,13.0,30.23,WSW,258,0.0,0.0,70,0.00,,---,0.00,VWS V14.01,2013-01-03 12:19:00,
2013-01-03 07:24:00,21.2,13.0,30.23,West,259,0.0,0.0,70,0.00,,---,0.00,VWS V14.01,2013-01-03 12:24:00,
2013-01-03 07:29:00,21.2,13.3,30.23,West,259,0.0,0.0,71,0.00,,---,0.00,VWS V14.01,2013-01-03 12:29:00,
2013-01-03 07:34:00,21.2,13.3,30.23,West,259,0.0,0.0,71,0.00,,---,0.00,VWS V14.01,2013-01-03 12:34:00,
2013-01-03 07:40:00,21.2,13.3,30.23,West,259,0.0,0.0,71,0.00,,---,0.00,VWS V14.01,2013-01-03 12:40:00,
2013-01-03 07:45:00,21.0,13.1,30.23,West,259,0.0,0.0,71,0.00,,---,0.00,VWS V14.01,2013-01-03 12:45:00,
2013-01-03 07:50:00,20.7,13.1,30.23,West,260,0.0,0.0,72,0.00,,---,0.00,VWS V14.01,2013-01-03 12:50:00,
2013-01-03 07:55:00,20.7,13.4,30.24,West,259,0.0,0.0,73,0.00,,---,0.00,VWS V14.01,2013-01-03 12:55:00,
2013-01-03 08:00:00,20.9,13.3,30.24,West,259,0.0,0.0,72,0.00,,---,0.00,VWS V14.01,2013-01-03 13:00:00,
2013-01-03 08:05:00,21.0,13.4,30.24,West,259,0.0,1.0,72,0.00,,---,0.00,VWS V14.01,2013-01-03 13:05:00,
2013-01-03 08:10:00,21.2,13.6,30.24,West,260,0.0,0.0,72,0.00,,---,0.00,VWS V14.01,2013-01-03 13:10:00,
2013-01-03 08:15:00,21.4,13.5,30.24,West,259,0.0,0.0,71,0.00,,---,0.00,VWS V14.01,2013-01-03 13:15:00,
2013-01-03 08:20:00,21.6,14.0,30.25,West,260,0.0,0.0,72,0.00,,---,0.00,VWS V14.01,2013-01-03 13:20:00,
2013-01-03 08:25:00,22.0,14.1,30.25,West,260,0.0,0.0,71,0.00,,---,0.00,VWS V14.01,2013-01-03 13:25:00,
2013-01-03 08:30:00,22.4,14.1,30.25,West,260,0.0,0.0,70,0.00,,---,0.00,VWS V14.01,2013-01-03 13:30:00,
2013-01-03 08:35:00,22.9,14.3,30.25,West,259,0.0,0.0,69,0.00,,---,0.00,VWS V14.01,2013-01-03 13:35:00,
2013-01-03 08:41:00,23.2,14.6,30.25,West,261,0.0,0.0,69,0.00,,---,0.00,VWS V14.01,2013-01-03 13:41:00,
2013-01-03 08:46:00,23.7,15.0,30.25,West,260,0.0,0.0,69,0.00,,---,0.00,VWS V14.01,2013-01-03 13:46:00,
2013-01-03 08:51:00,24.2,15.5,30.25,West,259,0.0,0.0,69,0.00,,---,0.00,VWS V14.01,2013-01-03 13:51:00,
2013-01-03 08:56:00,24.6,16.9,30.26,West,259,0.0,0.0,72,0.00,,---,0.00,VWS V14.01,2013-01-03 13:56:00,
2013-01-03 09:01:00,24.6,17.2,30.25,West,259,0.0,0.0,73,0.00,,---,0.00,VWS V14.01,2013-01-03 14:01:00,
2013-01-03 09:06:00,24.5,17.1,30.26,WSW,258,0.0,0.0,73,0.00,,---,0.00,VWS V14.01,2013-01-03 14:06:00,
2013-01-03 09:11:00,24.4,17.0,30.26,WSW,258,0.0,0.0,73,0.00,,---,0.00,VWS V14.01,2013-01-03 14:11:00,
2013-01-03 09:16:00,24.3,17.2,30.26,West,259,0.0,0.0,74,0.00,,---,0.00,VWS V14.01,2013-01-03 14:16:00,
2013-01-03 09:21:00,24.6,17.5,30.26,West,260,0.0,0.0,74,0.00,,---,0.00,VWS V14.01,2013-01-03 14:21:00,
2013-01-03 09:27:00,25.1,18.3,30.25,West,259,0.0,0.0,75,0.00,,---,0.00,VWS V14.01,2013-01-03 14:27:00,
2013-01-03 09:32:00,25.2,17.8,30.25,ESE,113,0.0,0.0,73,0.00,,---,0.00,VWS V14.01,2013-01-03 14:32:00,
2013-01-03 09:37:00,25.3,18.2,30.25,ESE,113,0.0,0.0,74,0.00,,---,0.00,VWS V14.01,2013-01-03 14:37:00,
2013-01-03 09:42:00,25.4,17.6,30.25,ESE,114,0.0,0.0,72,0.00,,---,0.00,VWS V14.01,2013-01-03 14:42:00,
2013-01-03 09:47:00,25.7,18.3,30.25,ESE,114,0.0,0.0,73,0.00,,---,0.00,VWS V14.01,2013-01-03 14:47:00,
2013-01-03 09:52:00,25.9,18.1,30.25,ESE,113,0.0,0.0,72,0.00,,---,0.00,VWS V14.01,2013-01-03 14:52:00,
2013-01-03 09:57:00,26.2,18.4,30.25,ESE,113,0.0,0.0,72,0.00,,---,0.00,VWS V14.01,2013-01-03 14:57:00,
2013-01-03 10:02:00,26.3,17.9,30.26,ESE,113,0.0,0.0,70,0.00,,---,0.00,VWS V14.01,2013-01-03 15:02:00,
2013-01-03 10:07:00,26.5,17.7,30.25,ESE,113,0.0,0.0,69,0.00,,---,0.00,VWS V14.01,2013-01-03 15:07:00,
2013-01-03 10:12:00,27.0,18.2,30.26,ESE,113,0.0,0.0,69,0.00,,---,0.00,VWS V14.01,2013-01-03 15:12:00,
2013-01-03 10:18:00,27.6,18.1,30.25,ESE,105,0.0,0.0,67,0.00,,---,0.00,VWS V14.01,2013-01-03 15:18:00,
2013-01-03 10:23:00,28.0,18.1,30.25,ESE,105,0.0,0.0,66,0.00,,---,0.00,VWS V14.01,2013-01-03 15:23:00,
2013-01-03 10:28:00,28.8,18.2,30.25,South,188,0.0,1.0,64,0.00,,---,0.00,VWS V14.01,2013-01-03 15:28:00,
2013-01-03 10:33:00,29.3,17.9,30.25,SSW,198,0.0,0.0,62,0.00,,---,0.00,VWS V14.01,2013-01-03 15:33:00,
2013-01-03 10:38:00,29.9,18.5,30.25,ENE,76,0.0,1.0,62,0.00,,---,0.00,VWS V14.01,2013-01-03 15:38:00,
2013-01-03 10:43:00,30.3,18.5,30.25,WSW,250,0.0,0.0,61,0.00,,---,0.00,VWS V14.01,2013-01-03 15:43:00,
2013-01-03 10:48:00,30.7,17.7,30.25,NW,314,2.0,2.0,58,0.00,,---,0.00,VWS V14.01,2013-01-03 15:48:00,
2013-01-03 10:53:00,30.2,17.6,30.24,NW,316,0.0,2.0,59,0.00,,---,0.00,VWS V14.01,2013-01-03 15:53:00,
2013-01-03 10:58:00,30.2,18.4,30.24,South,191,1.0,1.0,61,0.00,,---,0.00,VWS V14.01,2013-01-03 15:58:00,
2013-01-03 11:03:00,30.5,18.3,30.24,West,280,0.0,0.0,60,0.00,,---,0.00,VWS V14.01,2013-01-03 16:03:00,
2013-01-03 11:09:00,30.6,18.0,30.24,SW,221,0.0,0.0,59,0.00,,---,0.00,VWS V14.01,2013-01-03 16:09:00,
2013-01-03 11:14:00,30.5,18.7,30.23,NW,323,1.0,2.0,61,0.00,,---,0.00,VWS V14.01,2013-01-03 16:14:00,
2013-01-03 11:19:00,30.5,18.7,30.23,WNW,297,0.0,0.0,61,0.00,,---,0.00,VWS V14.01,2013-01-03 16:19:00,
2013-01-03 11:24:00,30.4,18.6,30.23,WNW,290,1.0,2.0,61,0.00,,---,0.00,VWS V14.01,2013-01-03 16:24:00,
2013-01-03 11:29:00,30.4,18.6,30.23,WNW,290,0.0,2.0,61,0.00,,---,0.00,VWS V14.01,2013-01-03 16:29:00,
2013-01-03 11:34:00,30.8,19.0,30.23,SSW,207,1.0,2.0,61,0.00,,---,0.00,VWS V14.01,2013-01-03 16:34:00,
2013-01-03 11:39:00,31.0,19.1,30.22,ESE,122,0.0,0.0,61,0.00,,---,0.00,VWS V14.01,2013-01-03 16:39:00,
2013-01-03 11:44:00,31.0,18.8,30.22,NNW,343,1.0,2.0,60,0.00,,---,0.00,VWS V14.01,2013-01-03 16:44:00,
2013-01-03 11:49:00,30.2,18.0,30.22,WSW,246,0.0,0.0,60,0.00,,---,0.00,VWS V14.01,2013-01-03 16:49:00,
2013-01-03 11:54:00,30.0,18.2,30.21,WNW,284,1.0,1.0,61,0.00,,---,0.00,VWS V14.01,2013-01-03 16:54:00,
2013-01-03 12:00:00,29.9,18.1,30.21,WNW,287,0.0,0.0,61,0.00,,---,0.00,VWS V14.01,2013-01-03 17:00:00,
2013-01-03 12:05:00,30.0,18.6,30.20,NW,323,0.0,0.0,62,0.00,,---,0.00,VWS V14.01,2013-01-03 17:05:00,
2013-01-03 12:10:00,30.3,18.1,30.20,SSW,203,0.0,0.0,60,0.00,,---,0.00,VWS V14.01,2013-01-03 17:10:00,
2013-01-03 12:15:00,30.2,17.6,30.19,NW,315,3.0,3.0,59,0.00,,---,0.00,VWS V14.01,2013-01-03 17:15:00,
2013-01-03 12:20:00,30.3,17.7,30.19,NW,308,0.0,1.0,59,0.00,,---,0.00,VWS V14.01,2013-01-03 17:20:00,
2013-01-03 12:25:00,30.6,17.6,30.19,NNW,335,2.0,2.0,58,0.00,,---,0.00,VWS V14.01,2013-01-03 17:25:00,
2013-01-03 12:30:00,30.8,17.4,30.18,NE,39,0.0,1.0,57,0.00,,---,0.00,VWS V14.01,2013-01-03 17:30:00,
2013-01-03 12:35:00,31.0,17.6,30.18,South,177,0.0,0.0,57,0.00,,---,0.00,VWS V14.01,2013-01-03 17:35:00,
2013-01-03 12:40:00,31.2,17.3,30.18,ESE,107,0.0,1.0,56,0.00,,---,0.00,VWS V14.01,2013-01-03 17:40:00,
2013-01-03 12:45:00,31.4,17.5,30.18,SW,231,0.0,1.0,56,0.00,,---,0.00,VWS V14.01,2013-01-03 17:45:00,
2013-01-03 12:51:00,31.5,18.4,30.18,NE,34,1.0,2.0,58,0.00,,---,0.00,VWS V14.01,2013-01-03 17:51:00,
2013-01-03 12:56:00,31.5,18.0,30.18,NW,305,3.0,4.0,57,0.00,,---,0.00,VWS V14.01,2013-01-03 17:56:00,
2013-01-03 13:01:00,31.4,17.1,30.17,NW,311,0.0,2.0,55,0.00,,---,0.00,VWS V14.01,2013-01-03 18:01:00,
2013-01-03 13:06:00,31.6,17.7,30.17,East,89,0.0,1.0,56,0.00,,---,0.00,VWS V14.01,2013-01-03 18:06:00,
2013-01-03 13:11:00,31.8,17.1,30.17,WNW,297,0.0,0.0,54,0.00,,---,0.00,VWS V14.01,2013-01-03 18:11:00,
2013-01-03 13:16:00,32.2,17.9,30.17,SSW,198,1.0,1.0,55,0.00,,---,0.00,VWS V14.01,2013-01-03 18:16:00,
2013-01-03 13:22:00,32.2,17.0,30.17,NW,307,0.0,1.0,53,0.00,,---,0.00,VWS V14.01,2013-01-03 18:22:00,
2013-01-03 13:27:00,32.1,17.8,30.17,NNE,16,0.0,0.0,55,0.00,,---,0.00,VWS V14.01,2013-01-03 18:27:00,
2013-01-03 13:32:00,32.1,18.2,30.16,West,281,0.0,0.0,56,0.00,,---,0.00,VWS V14.01,2013-01-03 18:32:00,
2013-01-03 13:37:00,32.0,17.7,30.16,WNW,294,0.0,4.0,55,0.00,,---,0.00,VWS V14.01,2013-01-03 18:37:00,
2013-01-03 13:42:00,32.0,18.1,30.16,NNW,328,1.0,3.0,56,0.00,,---,0.00,VWS V14.01,2013-01-03 18:42:00,
2013-01-03 13:47:00,31.9,18.0,30.16,North,6,0.0,0.0,56,0.00,,---,0.00,VWS V14.01,2013-01-03 18:47:00,
2013-01-03 13:52:00,32.0,18.5,30.16,SE,134,0.0,2.0,57,0.00,,---,0.00,VWS V14.01,2013-01-03 18:52:00,
2013-01-03 13:57:00,32.0,18.1,30.16,SE,134,0.0,2.0,56,0.00,,---,0.00,VWS V14.01,2013-01-03 18:57:00,
2013-01-03 14:03:00,32.0,18.5,30.16,North,1,0.0,0.0,57,0.00,,---,0.00,VWS V14.01,2013-01-03 19:03:00,
2013-01-03 14:08:00,32.0,18.1,30.16,North,356,0.0,0.0,56,0.00,,---,0.00,VWS V14.01,2013-01-03 19:08:00,
2013-01-03 14:13:00,32.0,18.1,30.16,ESE,114,1.0,2.0,56,0.00,,---,0.00,VWS V14.01,2013-01-03 19:13:00,
2013-01-03 14:18:00,32.0,18.5,30.16,West,260,0.0,0.0,57,0.00,,---,0.00,VWS V14.01,2013-01-03 19:18:00,
2013-01-03 14:56:00,32.1,18.6,30.16,SW,232,0.0,0.0,57,0.00,,---,0.00,VWS V14.01,2013-01-03 19:56:00,
2013-01-03 15:01:00,32.0,18.1,30.16,WNW,300,1.0,1.0,56,0.00,,---,0.00,VWS V14.01,2013-01-03 20:01:00,
2013-01-03 15:06:00,32.0,18.1,30.16,NW,315,1.0,3.0,56,0.00,,---,0.00,VWS V14.01,2013-01-03 20:06:00,
2013-01-03 15:11:00,32.1,18.2,30.16,SSW,199,1.0,3.0,56,0.00,,---,0.00,VWS V14.01,2013-01-03 20:11:00,
2013-01-03 15:16:00,32.2,19.1,30.16,SSW,207,0.0,0.0,58,0.00,,---,0.00,VWS V14.01,2013-01-03 20:16:00,
2013-01-03 15:21:00,31.9,18.8,30.16,SSW,207,0.0,0.0,58,0.00,,---,0.00,VWS V14.01,2013-01-03 20:21:00,
2013-01-03 15:27:00,31.7,19.0,30.16,ESE,109,0.0,0.0,59,0.00,,---,0.00,VWS V14.01,2013-01-03 20:27:00,
2013-01-03 15:32:00,31.6,19.3,30.16,NW,314,0.0,0.0,60,0.00,,---,0.00,VWS V14.01,2013-01-03 20:32:00,
2013-01-03 15:37:00,31.4,18.7,30.16,West,269,0.0,0.0,59,0.00,,---,0.00,VWS V14.01,2013-01-03 20:37:00,
2013-01-03 15:42:00,31.4,18.7,30.16,West,269,0.0,0.0,59,0.00,,---,0.00,VWS V14.01,2013-01-03 20:42:00,
2013-01-03 15:47:00,31.4,18.7,30.16,SSW,195,0.0,1.0,59,0.00,,---,0.00,VWS V14.01,2013-01-03 20:47:00,
2013-01-03 15:52:00,31.3,19.0,30.16,WSW,254,0.0,1.0,60,0.00,,---,0.00,VWS V14.01,2013-01-03 20:52:00,
2013-01-03 15:57:00,31.3,18.2,30.16,West,266,0.0,0.0,58,0.00,,---,0.00,VWS V14.01,2013-01-03 20:57:00,
2013-01-03 16:02:00,31.3,18.6,30.16,SW,214,0.0,0.0,59,0.00,,---,0.00,VWS V14.01,2013-01-03 21:02:00,
2013-01-03 16:07:00,31.2,18.5,30.16,SSW,212,0.0,0.0,59,0.00,,---,0.00,VWS V14.01,2013-01-03 21:07:00,
2013-01-03 16:13:00,31.1,18.5,30.16,WSW,245,0.0,0.0,59,0.00,,---,0.00,VWS V14.01,2013-01-03 21:13:00,
2013-01-03 16:18:00,31.0,18.4,30.16,WSW,253,0.0,0.0,59,0.00,,---,0.00,VWS V14.01,2013-01-03 21:18:00,
2013-01-03 16:23:00,31.1,18.1,30.17,West,259,0.0,1.0,58,0.00,,---,0.00,VWS V14.01,2013-01-03 21:23:00,
2013-01-03 16:28:00,31.4,18.4,30.17,South,186,0.0,0.0,58,0.00,,---,0.00,VWS V14.01,2013-01-03 21:28:00,
2013-01-03 16:33:00,31.1,18.5,30.17,WSW,242,0.0,0.0,59,0.00,,---,0.00,VWS V14.01,2013-01-03 21:33:00,
2013-01-03 16:38:00,30.8,18.2,30.17,WSW,243,0.0,0.0,59,0.00,,---,0.00,VWS V14.01,2013-01-03 21:38:00,
2013-01-03 16:44:00,30.5,18.3,30.17,WSW,242,0.0,0.0,60,0.00,,---,0.00,VWS V14.01,2013-01-03 21:44:00,
2013-01-03 16:49:00,30.4,18.2,30.17,WSW,242,0.0,0.0,60,0.00,,---,0.00,VWS V14.01,2013-01-03 21:49:00,
2013-01-03 16:54:00,30.1,18.3,30.17,WSW,243,0.0,0.0,61,0.00,,---,0.00,VWS V14.01,2013-01-03 21:54:00,
2013-01-03 16:59:00,30.0,17.8,30.17,WSW,242,0.0,0.0,60,0.00,,---,0.00,VWS V14.01,2013-01-03 21:59:00,
2013-01-03 17:04:00,29.9,18.1,30.17,WSW,242,0.0,0.0,61,0.00,,---,0.00,VWS V14.01,2013-01-03 22:04:00,
2013-01-03 17:09:00,29.7,18.3,30.17,WSW,242,0.0,1.0,62,0.00,,---,0.00,VWS V14.01,2013-01-03 22:09:00,
2013-01-03 17:15:00,29.6,17.8,30.17,WSW,242,0.0,0.0,61,0.00,,---,0.00,VWS V14.01,2013-01-03 22:15:00,
2013-01-03 17:20:00,29.5,18.5,30.17,SW,214,0.0,0.0,63,0.00,,---,0.00,VWS V14.01,2013-01-03 22:20:00,
2013-01-03 17:25:00,29.4,18.4,30.17,WSW,237,0.0,0.0,63,0.00,,---,0.00,VWS V14.01,2013-01-03 22:25:00,
2013-01-03 17:30:00,29.4,18.0,30.18,SSW,202,0.0,0.0,62,0.00,,---,0.00,VWS V14.01,2013-01-03 22:30:00,
2013-01-03 17:35:00,29.5,18.1,30.18,West,262,0.0,0.0,62,0.00,,---,0.00,VWS V14.01,2013-01-03 22:35:00,
2013-01-03 17:40:00,29.5,18.1,30.18,WSW,238,0.0,0.0,62,0.00,,---,0.00,VWS V14.01,2013-01-03 22:40:00,
2013-01-03 17:45:00,29.4,18.0,30.18,West,270,0.0,0.0,62,0.00,,---,0.00,VWS V14.01,2013-01-03 22:45:00,
2013-01-03 17:50:00,29.4,18.0,30.18,West,269,0.0,0.0,62,0.00,,---,0.00,VWS V14.01,2013-01-03 22:50:00,
2013-01-03 17:55:00,29.5,18.1,30.18,West,270,0.0,0.0,62,0.00,,---,0.00,VWS V14.01,2013-01-03 22:55:00,
2013-01-03 18:00:00,29.6,18.2,30.18,South,191,0.0,0.0,62,0.00,,---,0.00,VWS V14.01,2013-01-03 23:00:00,
2013-01-03 18:05:00,29.7,18.3,30.18,South,191,0.0,0.0,62,0.00,,---,0.00,VWS V14.01,2013-01-03 23:05:00,
2013-01-03 18:11:00,29.7,18.3,30.18,WSW,245,0.0,0.0,62,0.00,,---,0.00,VWS V14.01,2013-01-03 23:11:00,
2013-01-03 18:16:00,29.7,18.3,30.18,SW,222,0.0,0.0,62,0.00,,---,0.00,VWS V14.01,2013-01-03 23:16:00,
2013-01-03 18:21:00,29.7,18.3,30.18,SE,146,0.0,0.0,62,0.00,,---,0.00,VWS V14.01,2013-01-03 23:21:00,
2013-01-03 18:26:00,30.0,18.6,30.18,NNE,26,1.0,1.0,62,0.00,,---,0.00,VWS V14.01,2013-01-03 23:26:00,
2013-01-03 18:31:00,30.2,18.8,30.18,West,277,0.0,0.0,62,0.00,,---,0.00,VWS V14.01,2013-01-03 23:31:00,
2013-01-03 18:36:00,30.5,18.7,30.18,North,351,0.0,0.0,61,0.00,,---,0.00,VWS V14.01,2013-01-03 23:36:00,
2013-01-03 18:41:00,30.5,18.7,30.19,WNW,287,0.0,0.0,61,0.00,,---,0.00,VWS V14.01,2013-01-03 23:41:00,
2013-01-03 18:46:00,30.3,18.5,30.18,SW,229,0.0,0.0,61,0.00,,---,0.00,VWS V14.01,2013-01-03 23:46:00,
2013-01-03 18:51:00,30.4,18.6,30.18,WSW,238,0.0,2.0,61,0.00,,---,0.00,VWS V14.01,2013-01-03 23:51:00,
2013-01-03 18:56:00,30.8,19.0,30.18,NNW,331,1.0,1.0,61,0.00,,---,0.00,VWS V14.01,2013-01-03 23:56:00,
2013-01-03 19:01:00,31.2,19.0,30.18,WNW,301,0.0,3.0,60,0.00,,---,0.00,VWS V14.01,2013-01-04 00:01:00,
2013-01-03 19:06:00,31.4,19.5,30.18,NW,319,0.0,1.0,61,0.00,,---,0.00,VWS V14.01,2013-01-04 00:06:00,
2013-01-03 19:11:00,31.5,18.8,30.18,SSE,160,0.0,2.0,59,0.00,,---,0.00,VWS V14.01,2013-01-04 00:11:00,
2013-01-03 19:16:00,31.6,18.9,30.18,East,93,0.0,1.0,59,0.00,,---,0.00,VWS V14.01,2013-01-04 00:16:00,
2013-01-03 19:21:00,31.4,18.7,30.19,ENE,57,0.0,1.0,59,0.00,,---,0.00,VWS V14.01,2013-01-04 00:21:00,
2013-01-03 19:26:00,31.6,18.9,30.19,NE,47,0.0,0.0,59,0.00,,---,0.00,VWS V14.01,2013-01-04 00:26:00,
2013-01-03 19:31:00,31.5,18.8,30.19,SW,221,0.0,0.0,59,0.00,,---,0.00,VWS V14.01,2013-01-04 00:31:00,
2013-01-03 19:37:00,31.3,18.6,30.19,NNW,328,0.0,0.0,59,0.00,,---,0.00,VWS V14.01,2013-01-04 00:37:00,
2013-01-03 19:42:00,31.3,18.6,30.20,North,5,0.0,0.0,59,0.00,,---,0.00,VWS V14.01,2013-01-04 00:42:00,
2013-01-03 19:47:00,31.3,18.6,30.20,WSW,243,0.0,0.0,59,0.00,,---,0.00,VWS V14.01,2013-01-04 00:47:00,
2013-01-03 19:52:00,31.3,18.6,30.19,West,277,0.0,1.0,59,0.00,,---,0.00,VWS V14.01,2013-01-04 00:52:00,
2013-01-03 19:57:00,31.8,18.7,30.20,NNW,330,1.0,1.0,58,0.00,,---,0.00,VWS V14.01,2013-01-04 00:57:00,
2013-01-03 20:02:00,31.8,19.1,30.19,WNW,288,0.0,1.0,59,0.00,,---,0.00,VWS V14.01,2013-01-04 01:02:00,
2013-01-03 20:08:00,31.7,19.0,30.19,WNW,298,0.0,0.0,59,0.00,,---,0.00,VWS V14.01,2013-01-04 01:08:00,
2013-01-03 20:13:00,31.6,18.9,30.19,West,260,0.0,1.0,59,0.00,,---,0.00,VWS V14.01,2013-01-04 01:13:00,
2013-01-03 20:18:00,31.5,18.8,30.18,West,277,5.0,7.0,59,0.00,,---,0.00,VWS V14.01,2013-01-04 01:18:00,
2013-01-03 20:23:00,31.7,19.0,30.18,WSW,250,0.0,2.0,59,0.00,,---,0.00,VWS V14.01,2013-01-04 01:23:00,
2013-01-03 20:28:00,31.6,18.9,30.18,ESE,118,1.0,2.0,59,0.00,,---,0.00,VWS V14.01,2013-01-04 01:28:00,
2013-01-03 20:33:00,31.4,19.1,30.18,North,352,0.0,2.0,60,0.00,,---,0.00,VWS V14.01,2013-01-04 01:33:00,
2013-01-03 20:38:00,31.4,19.1,30.18,ESE,117,0.0,0.0,60,0.00,,---,0.00,VWS V14.01,2013-01-04 01:38:00,
2013-01-03 20:43:00,31.2,19.3,30.18,NNE,20,0.0,1.0,61,0.00,,---,0.00,VWS V14.01,2013-01-04 01:43:00,
2013-01-03 20:48:00,31.2,19.3,30.17,SE,124,0.0,3.0,61,0.00,,---,0.00,VWS V14.01,2013-01-04 01:48:00,
2013-01-03 20:53:00,31.1,19.2,30.18,NNW,329,0.0,1.0,61,0.00,,---,0.00,VWS V14.01,2013-01-04 01:53:00,
2013-01-03 20:58:00,30.8,19.0,30.18,NNW,335,0.0,2.0,61,0.00,,---,0.00,VWS V14.01,2013-01-04 01:58:00,
2013-01-03 21:04:00,30.9,19.0,30.19,SE,143,0.0,0.0,61,0.00,,---,0.00,VWS V14.01,2013-01-04 02:04:00,
2013-01-03 21:09:00,31.1,19.2,30.19,ESE,114,0.0,1.0,61,0.00,,---,0.00,VWS V14.01,2013-01-04 02:09:00,
2013-01-03 21:14:00,31.1,18.9,30.19,WSW,250,0.0,1.0,60,0.00,,---,0.00,VWS V14.01,2013-01-04 02:14:00,
2013-01-03 21:19:00,31.3,19.4,30.19,WNW,291,0.0,1.0,61,0.00,,---,0.00,VWS V14.01,2013-01-04 02:19:00,
2013-01-03 21:24:00,31.3,19.0,30.19,NW,316,0.0,1.0,60,0.00,,---,0.00,VWS V14.01,2013-01-04 02:24:00,
2013-01-03 21:29:00,31.2,19.3,30.18,WNW,297,0.0,1.0,61,0.00,,---,0.00,VWS V14.01,2013-01-04 02:29:00,
2013-01-03 21:34:00,31.0,19.9,30.18,ENE,63,0.0,0.0,63,0.00,,---,0.00,VWS V14.01,2013-01-04 02:34:00,
2013-01-03 21:39:00,30.6,19.1,30.19,SE,144,0.0,0.0,62,0.00,,---,0.00,VWS V14.01,2013-01-04 02:39:00,
2013-01-03 21:44:00,30.4,19.3,30.19,SSE,152,0.0,1.0,63,0.00,,---,0.00,VWS V14.01,2013-01-04 02:44:00,
2013-01-03 21:50:00,30.2,19.1,30.19,SE,125,0.0,0.0,63,0.00,,---,0.00,VWS V14.01,2013-01-04 02:50:00,
2013-01-03 21:55:00,29.9,19.2,30.19,East,94,1.0,1.0,64,0.00,,---,0.00,VWS V14.01,2013-01-04 02:55:00,
2013-01-03 22:00:00,29.9,19.2,30.19,SW,225,0.0,0.0,64,0.00,,---,0.00,VWS V14.01,2013-01-04 03:00:00,
2013-01-03 22:05:00,29.9,19.2,30.19,WSW,243,0.0,0.0,64,0.00,,---,0.00,VWS V14.01,2013-01-04 03:05:00,
2013-01-03 22:10:00,29.8,19.5,30.19,WSW,243,0.0,0.0,65,0.00,,---,0.00,VWS V14.01,2013-01-04 03:10:00,
2013-01-03 22:15:00,29.7,19.4,30.19,WNW,301,0.0,0.0,65,0.00,,---,0.00,VWS V14.01,2013-01-04 03:15:00,
2013-01-03 22:20:00,29.8,19.5,30.19,NNW,335,0.0,0.0,65,0.00,,---,0.00,VWS V14.01,2013-01-04 03:20:00,
2013-01-03 22:25:00,29.9,19.6,30.19,NNW,330,0.0,0.0,65,0.00,,---,0.00,VWS V14.01,2013-01-04 03:25:00,
2013-01-03 22:30:00,29.8,19.5,30.19,SW,221,0.0,0.0,65,0.00,,---,0.00,VWS V14.01,2013-01-04 03:30:00,
2013-01-03 22:35:00,29.7,19.4,30.19,WSW,256,0.0,1.0,65,0.00,,---,0.00,VWS V14.01,2013-01-04 03:35:00,
2013-01-03 22:41:00,29.9,19.6,30.19,North,350,0.0,0.0,65,0.00,,---,0.00,VWS V14.01,2013-01-04 03:41:00,
2013-01-03 22:46:00,30.0,19.7,30.19,NE,44,0.0,0.0,65,0.00,,---,0.00,VWS V14.01,2013-01-04 03:46:00,
2013-01-03 22:51:00,30.1,19.8,30.19,NNW,341,0.0,0.0,65,0.00,,---,0.00,VWS V14.01,2013-01-04 03:51:00,
2013-01-03 22:56:00,29.8,19.8,30.19,East,81,0.0,0.0,66,0.00,,---,0.00,VWS V14.01,2013-01-04 03:56:00,
2013-01-03 23:01:00,29.6,19.6,30.19,East,89,0.0,0.0,66,0.00,,---,0.00,VWS V14.01,2013-01-04 04:01:00,
2013-01-03 23:06:00,29.5,19.6,30.20,WNW,295,0.0,1.0,66,0.00,,---,0.00,VWS V14.01,2013-01-04 04:06:00,
2013-01-03 23:11:00,29.8,20.2,30.19,NW,310,1.0,4.0,67,0.00,,---,0.00,VWS V14.01,2013-01-04 04:11:00,
2013-01-03 23:17:00,30.2,20.2,30.19,NNE,22,0.0,0.0,66,0.00,,---,0.00,VWS V14.01,2013-01-04 04:17:00,
2013-01-03 23:22:00,30.1,20.5,30.19,NW,308,0.0,0.0,67,0.00,,---,0.00,VWS V14.01,2013-01-04 04:22:00,
2013-01-03 23:27:00,30.3,20.3,30.19,WSW,258,0.0,1.0,66,0.00,,---,0.00,VWS V14.01,2013-01-04 04:27:00,
2013-01-03 23:32:00,30.5,20.5,30.18,NNW,329,0.0,0.0,66,0.00,,---,0.00,VWS V14.01,2013-01-04 04:32:00,
2013-01-03 23:37:00,30.4,21.1,30.18,NE,39,1.0,1.0,68,0.00,,---,0.00,VWS V14.01,2013-01-04 04:37:00,
2013-01-03 23:42:00,30.1,20.8,30.19,ENE,67,1.0,1.0,68,0.00,,---,0.00,VWS V14.01,2013-01-04 04:42:00,
2013-01-03 23:47:00,29.9,20.6,30.19,North,9,0.0,0.0,68,0.00,,---,0.00,VWS V14.01,2013-01-04 04:47:00,
2013-01-03 23:52:00,30.1,20.8,30.18,WNW,300,0.0,0.0,68,0.00,,---,0.00,VWS V14.01,2013-01-04 04:52:00,
2013-01-03 23:57:00,30.3,21.0,30.17,NNW,329,1.0,2.0,68,0.00,,---,0.00,VWS V14.01,2013-01-04 04:57:00,